Location: Gilevgi
(36.8751°N, 30.0581°E)
Time: 10:22:17
(UTC+00:00)

CZ-2D R/B - Pass Details

Date: 09 March 2026
Orbit: 524 x 594 km, 98.0° (Epoch: 20 April)

Event Time Altitude Azimuth Distance (km) Brightness Sun altitude
Rises 17:29:41 0° 197° (SSW) 2,776 7.0 -18.4°
Reaches altitude 10° 17:32:11 10° 212° (SSW) 1,894 6.3 -18.9°
Maximum altitude 17:35:26 22° 265° (W) 1,289 6.0 -19.5°
Drops below altitude 10° 17:38:44 10° 317° (NW) 1,927 6.8 -20.2°
Sets 17:41:19 0° 332° (NNW) 2,838 7.5 -20.7°
